GW6246 Weather Reports


time (UTC)temp
C
wind
direction
speed
KPH
gust
KPH
rain 1hr
cm
rain 24hr
cm
rain mn
cm
humidity
%
barometer
mb
20260508052632 15 193 0.0 0.0 0.00 0.00 0.00 93 1016.6
20260508052132 15 184 0.0 0.0 0.00 0.00 0.00 93 1016.6
20260508045132 15 125 0.0 0.0 0.00 0.00 0.00 93 1016.6
20260508044632 15 143 0.0 0.0 0.00 0.00 0.00 92 1016.6
20260508042632 15 182 0.0 0.0 0.00 0.00 0.00 92 1016.3
20260508041632 15 193 0.0 0.0 0.00 0.00 0.00 91 1016.3
20260508041132 15 177 0.0 0.0 0.00 0.00 0.00 91 1015.9
20260508040132 15 206 0.0 0.0 0.00 0.00 0.00 90 1015.9
20260508034133 16 208 0.0 0.0 0.00 0.00 0.00 88 1015.6
20260508032632 16 211 0.0 0.0 0.00 0.00 0.00 86 1015.2
20260508032132 16 189 0.0 0.0 0.00 0.00 0.00 85 1015.2
20260508031132 16 198 0.0 0.0 0.00 0.00 0.00 85 1015.2
20260508030132 16 204 0.0 0.0 0.00 0.00 0.00 84 1014.9
20260508022132 18 188 1.6 1.6 0.00 0.00 0.00 79 1014.6
20260508021132 18 179 1.6 1.6 0.00 0.00 0.00 77 1014.6
20260508020132 19 171 1.6 1.6 0.00 0.00 0.00 76 1014.6
20260508015632 19 182 1.6 1.6 0.00 0.00 0.00 75 1014.6
20260508013632 20 188 1.6 1.6 0.00 0.00 0.00 73 1014.6
20260508013132 20 188 1.6 1.6 0.00 0.00 0.00 73 1014.6
20260508011632 20 179 1.6 1.6 0.00 0.00 0.00 71 1014.6
20260508011132 21 179 1.6 1.6 0.00 0.00 0.00 71 1014.2
20260508010132 21 189 1.6 1.6 0.00 0.00 0.00 69 1014.2
20260508005132 21 173 1.6 1.6 0.00 0.00 0.00 69 1014.2
20260508004131 21 191 1.6 1.6 0.00 0.00 0.00 68 1014.2
20260508003131 22 174 1.6 1.6 0.00 0.00 0.00 66 1014.2
20260508002132 22 177 1.6 1.6 0.00 0.00 0.00 66 1014.2
20260508001631 22 167 1.6 1.6 0.00 0.00 0.00 67 1014.2
20260507234132 23 196 1.6 1.6 0.00 0.00 0.00 63 1014.2
20260507233132 23 182 1.6 1.6 0.00 0.00 0.00 62 1014.2
20260507232132 23 175 3.2 3.2 0.00 0.00 0.00 64 1014.2
20260507231631 23 157 3.2 3.2 0.00 0.00 0.00 63 1014.2
20260507231131 24 11 3.2 3.2 0.00 0.00 0.00 60 1014.6
20260507230131 23 87 3.2 3.2 0.00 0.00 0.00 62 1014.6
20260507225131 23 171 3.2 3.2 0.00 0.00 0.00 65 1014.6
20260507224631 24 169 1.6 1.6 0.00 0.00 0.00 62 1014.6
20260507222631 23 157 1.6 1.6 0.00 0.00 0.00 64 1014.6
20260507222132 23 167 1.6 1.6 0.00 0.00 0.00 63 1014.6
20260507221131 23 156 1.6 1.6 0.00 0.00 0.00 63 1014.9
20260507220631 23 213 1.6 1.6 0.00 0.00 0.00 61 1014.9
20260507215131 23 174 1.6 1.6 0.00 0.00 0.00 61 1014.9
20260507214131 24 164 1.6 1.6 0.00 0.00 0.00 62 1015.2
20260507213131 25 168 1.6 1.6 0.00 0.00 0.00 61 1015.2
20260507211631 23 144 1.6 1.6 0.00 0.00 0.00 62 1015.2
20260507211131 24 160 1.6 1.6 0.00 0.00 0.00 62 1015.2
20260507210631 24 139 1.6 1.6 0.00 0.00 0.00 61 1015.2
20260507205131 23 149 1.6 1.6 0.00 0.00 0.00 62 1015.2
20260507203631 24 103 1.6 1.6 0.00 0.00 0.00 61 1015.2
20260507203131 23 121 1.6 1.6 0.00 0.00 0.00 60 1015.2
20260507202631 23 179 1.6 1.6 0.00 0.00 0.00 63 1015.2
20260507201631 23 164 1.6 1.6 0.00 0.00 0.00 62 1015.2
20260507200631 23 163 1.6 1.6 0.00 0.00 0.00 62 1015.6
20260507200131 23 163 1.6 1.6 0.00 0.00 0.00 62 1015.6
20260507195631 23 152 1.6 1.6 0.00 0.00 0.00 63 1015.6
20260507193631 22 144 1.6 1.6 0.00 0.00 0.00 63 1015.6
20260507193131 22 173 1.6 1.6 0.00 0.00 0.00 62 1015.6
20260507192131 22 162 1.6 1.6 0.00 0.00 0.00 63 1015.9
20260507191131 22 167 1.6 1.6 0.00 0.00 0.00 64 1015.9
20260507190131 22 41 1.6 1.6 0.00 0.00 0.00 63 1016.3
20260507185631 22 115 1.6 1.6 0.00 0.00 0.00 62 1016.3
20260507184631 21 154 1.6 1.6 0.00 0.00 0.00 63 1016.3
20260507184130 21 165 1.6 1.6 0.00 0.00 0.00 63 1016.3
20260507183131 21 150 1.6 1.6 0.00 0.00 0.00 63 1016.3
20260507182631 21 141 1.6 1.6 0.00 0.00 0.00 62 1016.3
20260507182131 21 101 1.6 1.6 0.00 0.00 0.00 62 1016.3
20260507181131 20 173 1.6 1.6 0.00 0.00 0.00 64 1016.3
20260507180631 20 162 1.6 1.6 0.00 0.00 0.00 64 1016.3
20260507175631 20 158 0.0 0.0 0.00 0.00 0.00 65 1016.3
20260507175131 20 149 0.0 0.0 0.00 0.00 0.00 66 1016.3
20260507173131 19 166 0.0 0.0 0.00 0.00 0.00 68 1016.6
20260507172130 18 159 0.0 0.0 0.00 0.00 0.00 69 1016.6
20260507171131 18 243 0.0 0.0 0.00 0.00 0.00 72 1016.6
20260507170131 18 136 0.0 0.0 0.00 0.00 0.00 73 1016.6
20260507165131 18 330 0.0 0.0 0.00 0.00 0.00 75 1016.6
20260507164131 17 120 0.0 0.0 0.00 0.00 0.00 76 1016.6
20260507163130 17 151 0.0 0.0 0.00 0.00 0.00 76 1016.6
20260507162130 17 165 0.0 0.0 0.00 0.00 0.00 79 1016.6
20260507161130 16 177 0.0 0.0 0.00 0.00 0.00 82 1016.6
20260507160630 15 209 0.0 0.0 0.00 0.00 0.00 83 1016.6
20260507155130 15 173 0.0 0.0 0.00 0.00 0.00 85 1016.9
20260507154130 15 188 0.0 0.0 0.00 0.00 0.00 87 1016.9
20260507153630 14 171 0.0 0.0 0.00 0.00 0.00 87 1016.9
20260507153130 14 153 0.0 0.0 0.00 0.00 0.00 87 1016.9
20260507152130 13 150 0.0 0.0 0.00 0.00 0.00 88 1016.9
20260507151130 13 300 0.0 0.0 0.00 0.00 0.00 89 1016.9
20260507145631 13 177 0.0 0.0 0.00 0.00 0.00 90 1016.9
20260507145130 13 178 0.0 0.0 0.00 0.00 0.00 90 1016.9
20260507144131 12 0 0.0 0.0 0.00 0.00 0.00 92 1016.6
20260507143630 12 191 0.0 0.0 0.00 0.00 0.00 93 1016.6
20260507143130 11 249 0.0 0.0 0.00 0.00 0.00 94 1016.6
20260507142130 11 280 0.0 0.0 0.00 0.00 0.00 93 1016.3
20260507141131 11 0 0.0 0.0 0.00 0.00 0.00 93 1016.3
20260507135130 11 0 0.0 0.0 0.00 0.00 0.00 93 1016.3
20260507134130 11 337 0.0 0.0 0.00 0.00 0.00 93 1016.3
20260507133630 11 0 0.0 0.0 0.00 0.00 0.00 93 1015.9
20260507133130 11 0 0.0 0.0 0.00 0.00 0.00 93 1015.9
20260507132630 11 0 0.0 0.0 0.00 0.00 0.00 93 1015.9
20260507131630 11 0 0.0 0.0 0.00 0.00 0.00 93 1015.9
20260507131130 11 0 0.0 0.0 0.00 0.00 0.00 93 1015.9
20260507130630 11 0 0.0 0.0 0.00 0.00 0.00 93 1015.9
20260507125630 11 0 0.0 0.0 0.00 0.00 0.00 93 1015.9
20260507125130 11 0 0.0 0.0 0.00 0.00 0.00 92 1015.9
20260507124130 11 0 0.0 0.0 0.00 0.00 0.00 92 1015.9
20260507123130 11 0 0.0 0.0 0.00 0.00 0.00 92 1015.6
20260507122130 11 296 0.0 0.0 0.00 0.00 0.00 92 1015.9
20260507120130 11 0 0.0 0.0 0.00 0.00 0.00 92 1015.9
20260507115130 12 0 0.0 0.0 0.00 0.00 0.00 93 1015.9
20260507114130 12 0 0.0 0.0 0.00 0.00 0.00 92 1015.9
20260507113130 12 0 0.0 0.0 0.00 0.00 0.00 92 1016.3
20260507112630 12 0 0.0 0.0 0.00 0.00 0.00 92 1016.3
20260507111630 12 0 0.0 0.0 0.00 0.00 0.00 92 1016.3
20260507111130 12 0 0.0 0.0 0.00 0.00 0.00 92 1016.3
20260507110130 12 0 0.0 0.0 0.00 0.00 0.00 92 1016.3
20260507105130 12 0 0.0 0.0 0.00 0.00 0.00 91 1016.3
20260507104130 12 0 0.0 0.0 0.00 0.00 0.00 91 1016.3
20260507103630 12 273 0.0 0.0 0.00 0.00 0.00 91 1016.3
20260507103129 12 0 0.0 0.0 0.00 0.00 0.00 91 1016.3
20260507101629 12 0 0.0 0.0 0.00 0.00 0.00 91 1016.3
20260507100630 12 0 0.0 0.0 0.00 0.00 0.00 90 1016.3
20260507095629 12 0 0.0 0.0 0.00 0.00 0.00 90 1016.3
20260507094130 12 0 0.0 0.0 0.00 0.00 0.00 90 1016.6
20260507093129 12 274 0.0 0.0 0.00 0.00 0.00 90 1016.6
20260507091629 12 339 0.0 0.0 0.00 0.00 0.00 90 1016.9
20260507090629 12 1 0.0 0.0 0.00 0.00 0.00 90 1016.9
20260507085630 12 0 0.0 0.0 0.00 0.00 0.00 90 1016.9
20260507085129 12 0 0.0 0.0 0.00 0.00 0.00 89 1017.3
20260507084130 13 0 0.0 0.0 0.00 0.00 0.00 89 1017.3
20260507083129 13 0 0.0 0.0 0.00 0.00 0.00 90 1017.3
20260507082130 13 0 0.0 0.0 0.00 0.00 0.00 89 1017.3
20260507081129 13 0 0.0 0.0 0.00 0.00 0.00 89 1017.3
20260507080629 13 0 0.0 0.0 0.00 0.00 0.00 89 1017.3
20260507075629 13 0 0.0 0.0 0.00 0.00 0.00 89 1017.3
20260507075129 13 0 0.0 0.0 0.00 0.00 0.00 89 1017.3
20260507074129 13 0 0.0 0.0 0.00 0.00 0.00 88 1017.3
20260507073629 13 0 0.0 0.0 0.00 0.00 0.00 88 1017.3
20260507072629 13 0 0.0 0.0 0.00 0.00 0.00 88 1017.3
20260507071629 13 0 0.0 0.0 0.00 0.00 0.00 87 1017.3
20260507070629 13 341 0.0 0.0 0.00 0.00 0.00 87 1017.6
20260507065629 13 351 0.0 0.0 0.00 0.00 0.00 86 1017.6
20260507065129 13 0 0.0 0.0 0.00 0.00 0.00 86 1017.6
20260507064629 13 0 0.0 0.0 0.00 0.00 0.00 86 1017.6
20260507064129 14 0 0.0 0.0 0.00 0.00 0.00 86 1017.6
20260507063629 14 0 0.0 0.0 0.00 0.00 0.00 86 1017.6
20260507062629 14 339 0.0 0.0 0.00 0.00 0.00 86 1017.6
20260507061629 14 0 0.0 0.0 0.00 0.00 0.00 86 1017.6
20260507060629 14 0 0.0 0.0 0.00 0.00 0.00 86 1017.6
20260507055629 14 0 0.0 0.0 0.00 0.00 0.00 86 1017.6